This demonstration page uses our WeatherBlox Daily Observations layout. Learn more.

Hourly Observations for November 15, 2015

Temp ( °F °C ) Dew Point ( °F °C ) Humidity (%) Winds ( mph kmh ) Pressure ( in mb ) Visibility ( mi km ) Precip ( " mm )
12:15 am 00:15 Clear 45 7.1 33 0.7 64 64 S 14 22 30.06 1018 10 16.0934 0 0
12:35 am 00:35 Clear 45 7 33 0.6 64 64 SSW 15 24 30.06 1018 10 16.0934 0 0
12:55 am 00:55 Clear 45 7.2 33 0.6 63 63 SSW 13 20 30.06 1018 10 16.0934 0 0
1:15 am 01:15 Clear 45 7 33 0.5 64 64 SSW 12 19 30.06 1018 10 16.0934 0 0
1:35 am 01:35 Clear 44 6.4 33 0.5 66 66 S 12 19 30.09 1019 10 16.0934 0 0
1:55 am 01:55 Clear 42 5.7 32 0.2 68 68 SSW 9 15 30.03 1017 10 16.0934 0 0
2:15 am 02:15 Clear 41 5.1 32 0 70 70 S 9 15 30.06 1018 10 16.0934 0 0
2:35 am 02:35 Clear 41 5 32 0 70 70 S 8 13 30.06 1018 10 16.0934 0 0
2:55 am 02:55 Clear 40 4.6 32 0 72 72 S 5 7 30.06 1018 10 16.0934 0 0
3:15 am 03:15 Clear 39 4 32 -0.1 75 75 S 6 9 30.06 1018 10 16.0934 0 0
3:35 am 03:35 Clear 37 3 31 -0.4 79 79 S 7 11 30.06 1018 10 16.0934 0 0
3:55 am 03:55 Clear 37 2.8 31 -0.5 79 79 S 6 9 30.06 1018 10 16.0934 0 0
4:15 am 04:15 Clear 37 2.6 31 -0.4 81 81 S 5 7 30.06 1018 10 16.0934 0 0
4:35 am 04:35 Clear 38 3.5 32 0 78 78 S 6 9 30.06 1018 10 16.0934 0 0
4:55 am 04:55 Clear 37 2.8 31 -0.6 79 79 S 5 7 30.06 1018 10 16.0934 0 0
5:15 am 05:15 Clear 35 1.9 31 -0.8 83 83 S 6 9 30.09 1019 10 16.0934 0 0
5:35 am 05:35 Clear 35 1.9 31 -0.5 84 84 S 6 9 30.09 1019 10 16.0934 0 0
5:55 am 05:55 Clear 35 1.5 30 -1 84 84 S 6 9 30.06 1018 10 16.0934 0 0
6:15 am 06:15 Clear 33 0.4 29 -1.5 87 87 Calm 30.06 1018 10 16.0934 0 0
6:35 am 06:35 Clear 32 0 29 -1.6 89 89 SSE 5 7 30.06 1018 10 16.0934 0 0
6:55 am 06:55 Clear 33 0.3 30 -1.2 90 90 SSE 5 7 30.06 1018 10 16.0934 0 0
7:15 am 07:15 Clear 32 0.1 29 -1.4 90 90 SSE 5 7 30.06 1018 10 16.0934 0 0
7:35 am 07:35 Sunny 33 0.7 31 -0.8 90 90 S 7 11 30.06 1018 10 16.0934 0 0
7:55 am 07:55 Sunny 34 1.3 31 -0.5 88 88 SSE 7 11 30.06 1018 10 16.0934 0 0
8:15 am 08:15 Sunny 36 2.3 32 0.2 86 86 SSE 8 13 30.06 1018 10 16.0934 0 0
8:35 am 08:35 Sunny 38 3.4 34 1 84 84 S 9 15 30.03 1017 10 16.0934 0 0
8:55 am 08:55 Sunny 41 4.8 35 1.9 82 82 S 13 20 30.03 1017 10 16.0934 0 0
9:15 am 09:15 Sunny 42 5.8 36 2 77 77 S 13 20 30 1016 10 16.0934 0 0
9:35 am 09:35 Sunny 44 6.5 37 2.5 76 76 S 12 19 29.97 1015 10 16.0934 0 0
9:55 am 09:55 Sunny 45 7.1 37 3 75 75 S 13 20 29.97 1015 10 16.0934 0 0
10:15 am 10:15 Partly Cloudy 47 8.1 38 3.6 74 74 S 16 26 29.97 1015 10 16.0934 0 0
10:35 am 10:35 Mostly Cloudy 46 7.6 39 3.8 77 77 S 15 24 29.97 1015 10 16.0934 0 0
10:55 am 10:55 Cloudy 45 7.3 39 4 80 80 S 16 26 29.97 1015 10 16.0934 0 0
11:15 am 11:15 Cloudy 45 7.3 40 4.3 81 81 S 16 26 29.97 1015 10 16.0934 0 0
11:35 am 11:35 Cloudy 45 7.2 40 4.5 83 83 S 15 24 29.97 1015 10 16.0934 0 0
11:55 am 11:55 Cloudy 45 7.3 41 4.8 84 84 S 15 24 29.94 1014 10 16.0934 0 0
12:15 pm 12:15 Cloudy 46 7.7 41 5.1 84 84 S 15 24 29.94 1014 10 16.0934 0 0
12:35 pm 12:35 Cloudy 47 8.2 42 5.4 83 83 S 15 24 29.94 1014 10 16.0934 0 0
12:55 pm 12:55 Cloudy 48 8.8 42 5.6 81 81 S 15 24 29.88 1012 10 16.0934 0 0
1:15 pm 13:15 Cloudy 49 9.3 43 6 80 80 S 14 22 29.88 1012 10 16.0934 0 0
1:35 pm 13:35 Cloudy 50 10 44 6.4 79 79 S 16 26 29.85 1011 10 16.0934 0 0
1:55 pm 13:55 Cloudy 51 10.5 44 6.5 76 76 S 20 31 29.8 1009 10 16.0934 0 0
2:15 pm 14:15 Cloudy 52 10.9 44 6.7 76 76 S 16 26 29.8 1009 10 16.0934 0 0
2:35 pm 14:35 Mostly Cloudy 53 11.7 44 6.8 72 72 S 20 31 29.8 1009 10 16.0934 0 0
2:55 pm 14:55 Mostly Cloudy 54 12.2 44 6.7 69 69 S 20 31 29.8 1009 10 16.0934 0 0
3:15 pm 15:15 Partly Cloudy 54 12.3 44 6.8 69 69 S 18 30 29.77 1008 10 16.0934 0 0
3:35 pm 15:35 Mostly Cloudy 54 12.2 44 6.7 69 69 S 20 31 29.77 1008 10 16.0934 0 0
3:55 pm 15:55 Cloudy 54 12.2 45 7 71 71 SSE 21 33 29.77 1008 10 16.0934 0 0
4:15 pm 16:15 Cloudy 54 12.1 45 7.1 72 72 S 14 22 29.77 1008 10 16.0934 0 0
4:35 pm 16:35 Cloudy 53 11.8 45 7.1 73 73 SSE 17 28 29.77 1008 10 16.0934 0 0
4:55 pm 16:55 Cloudy 53 11.4 45 7.2 76 76 S 17 28 29.77 1008 10 16.0934 0 0
5:15 pm 17:15 Cloudy 52 11 45 7.3 78 78 SSE 15 24 29.77 1008 10 16.0934 0 0
5:35 pm 17:35 Cloudy 52 11 46 7.5 79 79 SSE 15 24 29.77 1008 10 16.0934 0 0
5:55 pm 17:55 Mostly Cloudy 52 11.1 46 7.5 79 79 S 15 24 29.77 1008 10 16.0934 0 0
6:15 pm 18:15 Partly Cloudy 51 10.6 45 7.4 81 81 SSE 13 20 29.77 1008 10 16.0934 0 0
6:35 pm 18:35 Clear 51 10.5 46 7.5 82 82 SSE 15 24 29.77 1008 10 16.0934 0 0
6:55 pm 18:55 Partly Cloudy 51 10.8 46 7.8 82 82 SSE 13 20 29.77 1008 10 16.0934 0 0
7:15 pm 19:15 Partly Cloudy 50 10.1 46 7.7 85 85 SSE 13 20 29.8 1009 10 16.0934 0 0
7:35 pm 19:35 Mostly Cloudy 51 10.6 47 8.3 86 86 SSE 13 20 29.77 1008 10 16.0934 0 0
7:55 pm 19:55 Cloudy 52 10.9 47 8.5 85 85 SSE 13 20 29.74 1007 10 16.0934 0 0
8:15 pm 20:15 Cloudy 52 11.2 48 8.7 85 85 SSE 15 24 29.74 1007 10 16.0934 0 0
8:35 pm 20:35 Cloudy 53 11.5 48 9 85 85 S 15 24 29.74 1007 10 16.0934 0 0
8:55 pm 20:55 Cloudy 54 12 48 9.1 83 83 S 18 30 29.74 1007 10 16.0934 0 0
9:15 pm 21:15 Cloudy 53 11.9 48 9 83 83 SSE 16 26 29.74 1007 10 16.0934 0 0
9:35 pm 21:35 Cloudy 53 11.5 48 9 85 85 SSE 16 26 29.71 1006 10 16.0934 0 0
9:55 pm 21:55 Cloudy 53 11.8 49 9.2 84 84 S 17 28 29.71 1006 10 16.0934 0 0
10:15 pm 22:15 Cloudy 54 12 49 9.3 84 84 SSE 17 28 29.71 1006 10 16.0934 0 0
10:35 pm 22:35 Cloudy 54 12 49 9.5 85 85 SSE 17 28 29.71 1006 10 16.0934 0 0
10:55 pm 22:55 Cloudy 54 12 49 9.6 85 85 SSE 12 19 29.68 1005 10 16.0934 0 0
11:15 pm 23:15 Cloudy 54 12.2 50 9.8 85 85 SSE 17 28 29.68 1005 10 16.0934 0 0
11:35 pm 23:35 Cloudy 54 12.2 50 10 87 87 S 16 26 29.68 1005 10 16.0934 0 0
11:55 pm 23:55 Cloudy 54 12.2 50 10.2 88 88 S 20 31 29.68 1005 10 16.0934 0 0

Powered by AerisWeather